Location: Bijele Vode
(45.2833°N, 16.2000°E)
Time: 14:26:53
(UTC+00:00)

Iridium 4 Rocket - Pass Details

Date: 18 September 2020
Orbit: 584 x 905 km, 86.9° (Epoch: 29 October)

Event Time Altitude Azimuth Distance (km) Brightness Sun altitude
Rises 17:40:11 0° 181° (S) 3,038 6.5 -7.9°
Reaches altitude 10° 17:42:21 10° 182° (S) 2,173 5.8 -8.3°
Maximum altitude 17:47:12 88° 269° (W) 763 3.5 -9.1°
Drops below altitude 10° 17:52:36 10° 2° (N) 2,403 6.2 -10.0°
Sets 17:55:06 0° 3° (N) 3,386 7.0 -10.5°
